DLH1487 EDDH-LGIR

Flight info

Callsign DLH1487
Flight time N/A
Altitude 35000
Route AMLUH2C AMLUH M852 DENIX DCT ZUCKA DCT ALOSO DCT ARMUT DCT LULAR DCT DEXIT DCT PODET DCT DIMIS UL604 PLH/N0419F230 M978 OTREX
Aircraft A320/M-SDE3FGHIRWY/LB1

Departure

Time N/A
Airport Hamburg Helmut Schmidt Airport (EDDH)

Arrival

Time 2026-05-07 17:57
Airport Heraklion International Nikos Kazantzakis Airport (LGIR)
Time Latitude Longitude Altitude Speed Heading
2026-05-07 16:21 44.14231 17.41264 35042 ft 462 kts 155°
2026-05-07 16:22 44.08728 17.45893 35049 ft 462 kts 155°
2026-05-07 16:22 44.03249 17.50501 35054 ft 462 kts 155°
2026-05-07 16:23 43.97740 17.55133 35039 ft 463 kts 155°
2026-05-07 16:23 43.92209 17.59756 35043 ft 463 kts 155°
2026-05-07 16:24 43.86679 17.64372 35047 ft 464 kts 155°
2026-05-07 16:24 43.81141 17.68993 35060 ft 465 kts 155°
2026-05-07 16:25 43.75629 17.73583 35060 ft 465 kts 155°
2026-05-07 16:25 43.70082 17.78192 35066 ft 465 kts 155°
2026-05-07 16:26 43.64533 17.82784 35079 ft 465 kts 155°
2026-05-07 16:26 43.58989 17.87357 35080 ft 464 kts 156°
2026-05-07 16:27 43.53449 17.91929 35068 ft 464 kts 156°
2026-05-07 16:27 43.47910 17.96497 35070 ft 464 kts 156°
2026-05-07 16:28 43.42363 18.01051 35072 ft 464 kts 156°
2026-05-07 16:28 43.36730 18.05662 35074 ft 464 kts 156°
2026-05-07 16:29 43.31273 18.10111 35074 ft 464 kts 156°
2026-05-07 16:29 43.25722 18.14631 35075 ft 464 kts 156°
2026-05-07 16:30 43.20203 18.19130 35078 ft 464 kts 156°
2026-05-07 16:30 43.14653 18.23648 35081 ft 464 kts 156°
2026-05-07 16:31 43.09094 18.28158 35058 ft 464 kts 156°
2026-05-07 16:31 43.03523 18.32657 35064 ft 465 kts 156°
2026-05-07 16:32 42.97945 18.37160 35070 ft 466 kts 156°
2026-05-07 16:32 42.92352 18.41674 35071 ft 466 kts 156°
2026-05-07 16:33 42.86773 18.46157 35048 ft 470 kts 156°
2026-05-07 16:33 42.81111 18.50686 35057 ft 472 kts 156°
2026-05-07 16:34 42.75443 18.55216 35060 ft 472 kts 156°
2026-05-07 16:34 42.70734 18.58982 35063 ft 472 kts 156°
2026-05-07 16:35 42.65066 18.63509 35043 ft 473 kts 156°
2026-05-07 16:35 42.59372 18.68030 35052 ft 474 kts 157°
2026-05-07 16:36 42.53658 18.72560 35064 ft 475 kts 156°
2026-05-07 16:36 42.47946 18.77092 35058 ft 476 kts 156°
2026-05-07 16:37 42.42202 18.81638 35047 ft 479 kts 157°
2026-05-07 16:37 42.36458 18.86155 35053 ft 480 kts 157°
2026-05-07 16:38 42.30640 18.90727 35057 ft 481 kts 157°
2026-05-07 16:38 42.24851 18.95282 35061 ft 481 kts 157°
2026-05-07 16:39 42.19086 18.99799 35047 ft 483 kts 157°
2026-05-07 16:39 42.13262 19.04353 35046 ft 484 kts 157°
2026-05-07 16:40 42.07416 19.08913 35051 ft 485 kts 157°
2026-05-07 16:40 42.01611 19.13443 35037 ft 485 kts 158°
2026-05-07 16:41 41.95720 19.18014 35050 ft 492 kts 159°
2026-05-07 16:41 41.89768 19.22620 35052 ft 494 kts 159°
2026-05-07 16:42 41.83816 19.27231 35048 ft 495 kts 158°
2026-05-07 16:42 41.77851 19.31845 35050 ft 495 kts 159°
2026-05-07 16:43 41.71871 19.36447 35031 ft 496 kts 159°
2026-05-07 16:43 41.65888 19.41034 35037 ft 498 kts 159°
2026-05-07 16:44 41.59863 19.45659 35045 ft 500 kts 159°
2026-05-07 16:44 41.53819 19.50290 35017 ft 501 kts 159°
2026-05-07 16:45 41.47753 19.54924 35029 ft 503 kts 160°
2026-05-07 16:45 41.41652 19.59563 35036 ft 504 kts 160°
2026-05-07 16:46 41.35550 19.64190 35041 ft 505 kts 160°
2026-05-07 16:46 41.29436 19.68832 35033 ft 506 kts 160°
2026-05-07 16:47 41.23304 19.73475 35051 ft 507 kts 160°
2026-05-07 16:47 41.17210 19.78084 35057 ft 508 kts 160°
2026-05-07 16:48 41.11063 19.82727 35048 ft 509 kts 160°
2026-05-07 16:48 41.04899 19.87359 35050 ft 509 kts 160°
2026-05-07 16:49 40.98725 19.91978 35049 ft 510 kts 160°
2026-05-07 16:49 40.92547 19.96607 35054 ft 510 kts 160°
2026-05-07 16:50 40.86367 20.01237 35054 ft 511 kts 160°
2026-05-07 16:50 40.80168 20.05860 35037 ft 511 kts 161°
2026-05-07 16:51 40.73962 20.10469 35059 ft 512 kts 161°
2026-05-07 16:51 40.67784 20.15048 35064 ft 513 kts 160°
2026-05-07 16:52 40.61570 20.19658 35050 ft 513 kts 161°
2026-05-07 16:52 40.55316 20.24285 35077 ft 517 kts 161°
2026-05-07 16:53 40.49041 20.28909 35082 ft 518 kts 160°
2026-05-07 16:53 40.42764 20.33531 35088 ft 518 kts 161°
2026-05-07 16:54 40.36473 20.38141 35096 ft 518 kts 161°
2026-05-07 16:54 40.30172 20.42744 35085 ft 518 kts 160°
2026-05-07 16:55 40.23913 20.47323 35087 ft 519 kts 160°
2026-05-07 16:55 40.17597 20.51937 35088 ft 520 kts 160°
2026-05-07 16:56 40.11266 20.56548 35072 ft 521 kts 160°
2026-05-07 16:56 40.01730 20.63349 35089 ft 520 kts 161°
2026-05-07 16:57 39.95322 20.67698 35095 ft 519 kts 162°
2026-05-07 16:57 39.88900 20.72020 35105 ft 519 kts 162°
2026-05-07 16:58 39.82499 20.76365 35110 ft 519 kts 161°
2026-05-07 16:58 39.76105 20.80731 35120 ft 519 kts 161°
2026-05-07 16:59 39.69697 20.85097 35110 ft 520 kts 161°
2026-05-07 16:59 39.63276 20.89445 35073 ft 520 kts 161°
2026-05-07 17:00 39.56887 20.93753 35096 ft 520 kts 161°
2026-05-07 17:00 39.50469 20.98080 35106 ft 520 kts 161°
2026-05-07 17:01 39.44046 21.02404 35102 ft 519 kts 161°
2026-05-07 17:01 39.37612 21.06729 35098 ft 519 kts 161°
2026-05-07 17:02 39.31209 21.11030 35143 ft 516 kts 160°
2026-05-07 17:02 39.28030 21.13163 35036 ft 517 kts 160°
2026-05-07 17:02 39.24801 21.15314 34940 ft 526 kts 160°
2026-05-07 17:03 39.18261 21.19656 34749 ft 535 kts 160°
2026-05-07 17:03 39.14947 21.21866 34634 ft 536 kts 160°
2026-05-07 17:03 39.11645 21.24075 34650 ft 534 kts 160°
2026-05-07 17:04 39.08345 21.26282 34797 ft 534 kts 160°
2026-05-07 17:04 39.05045 21.28484 34924 ft 534 kts 160°
2026-05-07 17:04 38.98446 21.32868 34840 ft 533 kts 160°
2026-05-07 17:05 38.91859 21.37218 34779 ft 532 kts 160°
2026-05-07 17:05 38.85269 21.41568 34850 ft 531 kts 160°
2026-05-07 17:06 38.78754 21.45867 34842 ft 530 kts 160°
2026-05-07 17:06 38.72194 21.50184 34812 ft 530 kts 160°
2026-05-07 17:07 38.65623 21.54495 34835 ft 530 kts 160°
2026-05-07 17:07 38.59066 21.58786 34810 ft 530 kts 160°
2026-05-07 17:08 38.52504 21.63080 34809 ft 530 kts 160°
2026-05-07 17:08 38.45928 21.67364 34834 ft 530 kts 160°
2026-05-07 17:09 38.39363 21.71637 34805 ft 531 kts 160°
2026-05-07 17:09 38.32753 21.75929 34841 ft 534 kts 160°
2026-05-07 17:10 38.26132 21.80227 34837 ft 534 kts 160°
2026-05-07 17:10 38.19550 21.84492 34715 ft 534 kts 160°
2026-05-07 17:11 38.12925 21.88780 34674 ft 536 kts 160°
2026-05-07 17:11 38.09591 21.90923 34809 ft 537 kts 160°
2026-05-07 17:11 38.06250 21.93067 34893 ft 538 kts 160°
2026-05-07 17:12 37.99586 21.97348 34788 ft 537 kts 160°
2026-05-07 17:12 37.92904 22.01630 34738 ft 537 kts 160°
2026-05-07 17:13 37.86263 22.05878 34841 ft 539 kts 160°
2026-05-07 17:13 37.79575 22.10159 34826 ft 539 kts 160°
2026-05-07 17:14 37.72882 22.14441 34765 ft 539 kts 160°
2026-05-07 17:14 37.66163 22.18713 34832 ft 541 kts 160°
2026-05-07 17:15 37.59431 22.22979 34849 ft 541 kts 160°
2026-05-07 17:15 37.52692 22.27254 34809 ft 541 kts 160°
2026-05-07 17:16 37.49372 22.29356 34546 ft 538 kts 160°
2026-05-07 17:16 37.46041 22.31466 33863 ft 535 kts 160°
2026-05-07 17:16 37.42717 22.33571 33057 ft 534 kts 160°
2026-05-07 17:16 37.39389 22.35674 32217 ft 534 kts 160°
2026-05-07 17:17 37.36064 22.37773 31363 ft 535 kts 160°
2026-05-07 17:17 37.32777 22.39844 30510 ft 536 kts 160°
2026-05-07 17:17 37.29435 22.41946 29523 ft 537 kts 159°
2026-05-07 17:17 37.26093 22.44046 28546 ft 536 kts 159°
2026-05-07 17:18 37.22762 22.46141 27722 ft 533 kts 158°
2026-05-07 17:18 37.19464 22.48216 27011 ft 526 kts 158°
2026-05-07 17:18 37.16263 22.50226 26376 ft 519 kts 157°
2026-05-07 17:18 37.13009 22.52262 25714 ft 511 kts 157°
2026-05-07 17:19 37.09888 22.54211 25084 ft 504 kts 157°
2026-05-07 17:19 37.06769 22.56157 24472 ft 497 kts 156°
2026-05-07 17:19 37.03694 22.58073 23873 ft 490 kts 156°
2026-05-07 17:19 37.00661 22.59959 23313 ft 484 kts 156°
2026-05-07 17:20 36.97644 22.61833 23101 ft 482 kts 156°
2026-05-07 17:20 36.94644 22.63695 23146 ft 482 kts 156°
2026-05-07 17:20 36.91641 22.65561 23143 ft 482 kts 156°
2026-05-07 17:20 36.88637 22.67430 23127 ft 482 kts 156°
2026-05-07 17:21 36.85629 22.69305 23142 ft 484 kts 156°
2026-05-07 17:21 36.82607 22.71186 23140 ft 485 kts 156°
2026-05-07 17:21 36.79585 22.73058 23142 ft 485 kts 156°
2026-05-07 17:21 36.76593 22.74906 23141 ft 485 kts 156°
2026-05-07 17:22 36.74551 22.76166 23140 ft 485 kts 156°
2026-05-07 17:22 36.71524 22.78035 23138 ft 485 kts 156°
2026-05-07 17:22 36.67522 22.80508 23144 ft 485 kts 156°
2026-05-07 17:22 36.65478 22.81772 23145 ft 485 kts 156°
2026-05-07 17:23 36.62461 22.83638 23134 ft 485 kts 156°
2026-05-07 17:23 36.59442 22.85503 23123 ft 485 kts 156°
2026-05-07 17:23 36.56417 22.87369 23117 ft 485 kts 156°
2026-05-07 17:23 36.53394 22.89230 23125 ft 485 kts 156°
2026-05-07 17:24 36.50361 22.91094 23129 ft 486 kts 156°
2026-05-07 17:24 36.47330 22.92954 23135 ft 486 kts 156°
2026-05-07 17:24 36.44293 22.94812 23139 ft 486 kts 156°
2026-05-07 17:24 36.41300 22.96644 23143 ft 486 kts 156°
2026-05-07 17:25 36.38264 22.98504 23145 ft 486 kts 156°
2026-05-07 17:25 36.35231 23.00361 23140 ft 486 kts 157°
2026-05-07 17:25 36.32185 23.02223 23139 ft 487 kts 157°
2026-05-07 17:25 36.29147 23.04080 23141 ft 487 kts 157°
2026-05-07 17:26 36.26100 23.05941 23142 ft 487 kts 157°
2026-05-07 17:26 36.23057 23.07796 23142 ft 487 kts 157°
2026-05-07 17:26 36.20010 23.09653 23143 ft 488 kts 157°
2026-05-07 17:26 36.16967 23.11507 23143 ft 488 kts 156°
2026-05-07 17:27 36.13918 23.13366 23161 ft 488 kts 156°
2026-05-07 17:27 36.10862 23.15227 23153 ft 488 kts 156°
2026-05-07 17:27 36.07858 23.17055 23152 ft 488 kts 156°
2026-05-07 17:27 36.04814 23.18899 23155 ft 488 kts 156°
2026-05-07 17:28 36.01764 23.20742 23144 ft 487 kts 156°
2026-05-07 17:28 35.98710 23.22587 23150 ft 487 kts 156°
2026-05-07 17:28 35.95658 23.24430 23151 ft 487 kts 156°
2026-05-07 17:28 35.92611 23.26270 23139 ft 487 kts 156°
2026-05-07 17:29 35.89562 23.28115 23143 ft 487 kts 156°
2026-05-07 17:29 35.86521 23.29955 23130 ft 487 kts 156°
2026-05-07 17:29 35.83521 23.31769 23114 ft 487 kts 157°
2026-05-07 17:29 35.80471 23.33608 23115 ft 487 kts 157°
2026-05-07 17:30 35.77424 23.35442 23114 ft 488 kts 157°
2026-05-07 17:30 35.74370 23.37278 23117 ft 488 kts 157°
2026-05-07 17:30 35.71310 23.39116 23127 ft 489 kts 157°
2026-05-07 17:30 35.68246 23.40952 23123 ft 489 kts 157°
2026-05-07 17:31 35.65188 23.42785 23128 ft 490 kts 157°
2026-05-07 17:31 35.62124 23.44626 23130 ft 490 kts 157°
2026-05-07 17:31 35.59054 23.46470 23132 ft 490 kts 157°
2026-05-07 17:31 35.56021 23.48286 23127 ft 491 kts 157°
2026-05-07 17:32 35.52944 23.50123 23117 ft 491 kts 157°
2026-05-07 17:32 35.49877 23.51953 23031 ft 489 kts 157°
2026-05-07 17:32 35.46831 23.53770 22375 ft 483 kts 157°
2026-05-07 17:32 35.43830 23.55559 21769 ft 477 kts 157°
2026-05-07 17:33 35.40860 23.57329 21199 ft 470 kts 157°
2026-05-07 17:33 35.37939 23.59069 20664 ft 464 kts 157°
2026-05-07 17:33 35.35061 23.60782 20116 ft 458 kts 157°
2026-05-07 17:33 35.32215 23.62474 19597 ft 451 kts 157°
2026-05-07 17:34 35.29447 23.64238 19025 ft 448 kts 150°
2026-05-07 17:34 35.26986 23.66551 18534 ft 444 kts 137°
2026-05-07 17:34 35.24976 23.69374 17950 ft 439 kts 126°
2026-05-07 17:34 35.23473 23.72613 17354 ft 435 kts 114°
2026-05-07 17:35 35.22528 23.76094 16816 ft 430 kts 102°
2026-05-07 17:35 35.22144 23.79684 16265 ft 423 kts 92°
2026-05-07 17:35 35.21964 23.83256 15702 ft 419 kts 93°
2026-05-07 17:35 35.21775 23.86804 15271 ft 416 kts 93°
2026-05-07 17:36 35.21582 23.90316 15127 ft 406 kts 93°
2026-05-07 17:36 35.21393 23.93707 15159 ft 395 kts 93°
2026-05-07 17:36 35.21207 23.97004 15158 ft 393 kts 93°
2026-05-07 17:36 35.21019 24.00338 15156 ft 392 kts 93°
2026-05-07 17:37 35.20833 24.03674 15156 ft 392 kts 93°
2026-05-07 17:37 35.20646 24.06995 15153 ft 392 kts 93°
2026-05-07 17:37 35.20458 24.10323 15152 ft 391 kts 92°
2026-05-07 17:37 35.20272 24.13635 15153 ft 391 kts 92°
2026-05-07 17:38 35.20085 24.16959 15150 ft 391 kts 92°
2026-05-07 17:38 35.19894 24.20275 15160 ft 392 kts 93°
2026-05-07 17:38 35.19700 24.23604 15150 ft 392 kts 93°
2026-05-07 17:38 35.19507 24.26929 15154 ft 392 kts 93°
2026-05-07 17:39 35.19314 24.30254 15150 ft 389 kts 93°
2026-05-07 17:39 35.19123 24.33484 15149 ft 372 kts 93°
2026-05-07 17:39 35.18942 24.36530 15144 ft 356 kts 93°
2026-05-07 17:39 35.18766 24.39497 15119 ft 345 kts 92°
2026-05-07 17:40 35.18595 24.42405 14835 ft 341 kts 92°
2026-05-07 17:40 35.18426 24.45286 14519 ft 339 kts 92°
2026-05-07 17:40 35.18257 24.48150 14197 ft 337 kts 92°
2026-05-07 17:40 35.18088 24.50999 13864 ft 335 kts 92°
2026-05-07 17:41 35.17919 24.53831 13506 ft 332 kts 92°
2026-05-07 17:41 35.17751 24.56640 13188 ft 330 kts 92°
2026-05-07 17:41 35.17584 24.59441 13139 ft 330 kts 92°
2026-05-07 17:41 35.17416 24.62244 13147 ft 331 kts 92°
2026-05-07 17:42 35.17247 24.65053 13151 ft 331 kts 92°
2026-05-07 17:42 35.17075 24.67858 13150 ft 331 kts 92°
2026-05-07 17:42 35.16902 24.70660 13150 ft 329 kts 92°
2026-05-07 17:42 35.16729 24.73405 13149 ft 321 kts 92°
2026-05-07 17:43 35.16558 24.76124 13147 ft 320 kts 92°
2026-05-07 17:43 35.16387 24.78829 13150 ft 319 kts 92°
2026-05-07 17:43 35.16219 24.81533 13144 ft 319 kts 92°
2026-05-07 17:43 35.16055 24.84205 13143 ft 319 kts 92°
2026-05-07 17:44 35.15910 24.86907 13143 ft 319 kts 89°
2026-05-07 17:44 35.16025 24.89603 13144 ft 317 kts 80°
2026-05-07 17:44 35.16463 24.92235 13144 ft 315 kts 71°
2026-05-07 17:44 35.17209 24.94748 13143 ft 313 kts 63°
2026-05-07 17:45 35.18232 24.97083 13145 ft 311 kts 54°
2026-05-07 17:45 35.19509 24.99206 13144 ft 309 kts 46°
2026-05-07 17:45 35.20962 25.01134 13147 ft 308 kts 44°
2026-05-07 17:45 35.22419 25.03050 13137 ft 308 kts 44°
2026-05-07 17:46 35.23877 25.04980 13140 ft 308 kts 44°
2026-05-07 17:46 35.25332 25.06912 13030 ft 309 kts 44°
2026-05-07 17:46 35.26772 25.08824 12612 ft 310 kts 44°
2026-05-07 17:46 35.28241 25.10769 12190 ft 311 kts 45°
2026-05-07 17:47 35.29688 25.12692 11996 ft 304 kts 45°
2026-05-07 17:47 35.31113 25.14586 11699 ft 301 kts 45°
2026-05-07 17:47 35.32532 25.16471 11366 ft 300 kts 45°
2026-05-07 17:47 35.33942 25.18340 11069 ft 299 kts 45°
2026-05-07 17:48 35.35390 25.20173 10908 ft 298 kts 43°
2026-05-07 17:48 35.36878 25.21945 10767 ft 298 kts 41°
2026-05-07 17:48 35.38386 25.23695 10639 ft 297 kts 41°
2026-05-07 17:48 35.39886 25.25431 10501 ft 297 kts 41°
2026-05-07 17:49 35.41366 25.27150 10378 ft 296 kts 41°
2026-05-07 17:49 35.42856 25.28895 10249 ft 296 kts 42°
2026-05-07 17:49 35.44341 25.30640 10108 ft 296 kts 42°
2026-05-07 17:49 35.45840 25.32406 9562 ft 301 kts 42°
2026-05-07 17:50 35.47326 25.34166 9351 ft 293 kts 42°
2026-05-07 17:50 35.48778 25.35889 9030 ft 289 kts 43°
2026-05-07 17:50 35.50215 25.37594 8672 ft 287 kts 43°
2026-05-07 17:50 35.51649 25.39298 8301 ft 285 kts 43°
2026-05-07 17:51 35.53071 25.40985 7936 ft 283 kts 43°
2026-05-07 17:51 35.54458 25.42696 7565 ft 282 kts 51°
2026-05-07 17:51 35.55207 25.44841 7229 ft 281 kts 84°
2026-05-07 17:51 35.54827 25.47153 7125 ft 280 kts 120°
2026-05-07 17:52 35.53445 25.48811 7129 ft 283 kts 154°
2026-05-07 17:52 35.51547 25.49263 7130 ft 281 kts 188°
2026-05-07 17:52 35.49762 25.48375 7136 ft 281 kts 217°
2026-05-07 17:52 35.48232 25.46873 7128 ft 282 kts 220°
2026-05-07 17:53 35.46710 25.45353 7132 ft 282 kts 220°
2026-05-07 17:53 35.45188 25.43829 7132 ft 282 kts 220°
2026-05-07 17:53 35.43668 25.42305 7132 ft 282 kts 220°
2026-05-07 17:53 35.42074 25.40917 7026 ft 280 kts 211°
2026-05-07 17:54 35.40332 25.39794 6387 ft 288 kts 205°
2026-05-07 17:54 35.38468 25.38779 5616 ft 299 kts 203°
2026-05-07 17:54 35.36533 25.37779 4825 ft 301 kts 202°
2026-05-07 17:54 35.34614 25.36767 4025 ft 297 kts 206°
2026-05-07 17:55 35.33072 25.35161 3366 ft 289 kts 239°
2026-05-07 17:55 35.32515 25.32919 3167 ft 265 kts 266°
2026-05-07 17:55 35.32631 25.30739 2305 ft 258 kts 282°
2026-05-07 17:55 35.33053 25.28607 1463 ft 252 kts 283°
2026-05-07 17:56 35.33372 25.26594 1027 ft 230 kts 278°
2026-05-07 17:56 35.33552 25.24808 874 ft 196 kts 274°
2026-05-07 17:56 35.33639 25.23258 776 ft 169 kts 272°
2026-05-07 17:56 35.33719 25.21923 628 ft 150 kts 276°
2026-05-07 17:57 35.33808 25.20650 296 ft 146 kts 273°
2026-05-07 17:57 35.33859 25.19848 197 ft 141 kts 271°
2026-05-07 17:57 35.33961 25.18296 95 ft 126 kts 273°
2026-05-07 17:57 35.34008 25.17529 89 ft 48 kts 275°
2026-05-07 17:58 35.34025 25.17304 86 ft 26 kts 273°
2026-05-07 17:58 35.33997 25.17112 89 ft 17 kts 243°
2026-05-07 17:58 35.33945 25.17076 84 ft 6 kts 108°
2026-05-07 17:58 35.33942 25.17088 86 ft 0 kts 104°
2026-05-07 17:59 35.33938 25.17117 86 ft 4 kts 97°
2026-05-07 17:59 35.33933 25.17172 85 ft 6 kts 96°
2026-05-07 18:00 35.33929 25.17211 86 ft 3 kts 92°
2026-05-07 18:00 35.33929 25.17226 88 ft 2 kts 93°
2026-05-07 18:00 35.33927 25.17266 87 ft 7 kts 93°
2026-05-07 18:00 35.33923 25.17330 88 ft 5 kts 95°
2026-05-07 18:01 35.33923 25.17331 88 ft 0 kts 95°
2026-05-07 18:05 35.33917 25.17409 87 ft 16 kts 95°
2026-05-07 18:05 35.33902 25.17500 89 ft 14 kts 134°
2026-05-07 18:05 35.33847 25.17500 91 ft 8 kts 220°
2026-05-07 18:05 35.33855 25.17453 90 ft 4 kts 294°
2026-05-07 18:06 35.33859 25.17428 89 ft 0 kts 274°